• In Netherlands
  • List of Countries
  • For 7 days
  • Water Temperature
  • Satellite Maps
  • Weather Map
  • Weather Widgets
  • user-avatar
    Login

    Hourly Weather Amar

    Today, 23 June, Friday

    Time Temperature Precipitation Wind Pressure Humidity
    00:00 +39°C° 0 mm 11 mps 748 mmHg 36%
    01:00 +39°C° 0 mm 11 mps 748 mmHg 38%
    02:00 +38°C° 0 mm 11 mps 748 mmHg 39%
    03:00 +38°C° 0 mm 11 mps 747 mmHg 40%
    04:00 +38°C° 0 mm 11 mps 748 mmHg 41%
    05:00 +37°C° 0 mm 11 mps 748 mmHg 42%
    06:00 +37°C° 0 mm 11 mps 748 mmHg 42%
    07:00 +38°C° 0 mm 11 mps 748 mmHg 38%
    08:00 +39°C° 0 mm 11 mps 749 mmHg 33%
    09:00 +42°C° 0 mm 12 mps 749 mmHg 28%
    10:00 +42°C° 0 mm 12 mps 749 mmHg 25%
    11:00 +43°C° 0 mm 12 mps 749 mmHg 23%
    12:00 +43°C° 0 mm 12 mps 749 mmHg 21%
    13:00 +43°C° 0 mm 12 mps 748 mmHg 21%
    14:00 +43°C° 0 mm 12 mps 748 mmHg 20%
    15:00 +43°C° 0 mm 12 mps 748 mmHg 20%
    16:00 +42°C° 0 mm 11 mps 748 mmHg 21%
    17:00 +41°C° 0 mm 11 mps 748 mmHg 22%
    18:00 +40°C° 0 mm 10 mps 747 mmHg 24%
    19:00 +39°C° 0 mm 9 mps 748 mmHg 27%
    20:00 +38°C° 0 mm 8 mps 748 mmHg 30%
    21:00 +38°C° 0 mm 7 mps 748 mmHg 33%
    22:00 +38°C° 0 mm 7 mps 748 mmHg 34%
    23:00 +38°C° 0 mm 7 mps 748 mmHg 35%

    Tomorrow, 24 June, Saturday

    Time Temperature Precipitation Wind Pressure Humidity
    00:00 +36°C° 0 mm 7 mps 747 mmHg 36%
    01:00 +37°C° 0 mm 8 mps 747 mmHg 37%
    02:00 +37°C° 0 mm 8 mps 747 mmHg 39%
    03:00 +37°C° 0 mm 8 mps 747 mmHg 40%
    04:00 +37°C° 0 mm 8 mps 747 mmHg 40%
    05:00 +37°C° 0 mm 8 mps 747 mmHg 41%
    06:00 +37°C° 0 mm 8 mps 748 mmHg 41%
    07:00 +38°C° 0 mm 8 mps 748 mmHg 36%
    08:00 +39°C° 0 mm 9 mps 748 mmHg 31%
    09:00 +42°C° 0 mm 9 mps 748 mmHg 26%
    10:00 +43°C° 0 mm 9 mps 748 mmHg 24%
    11:00 +43°C° 0 mm 9 mps 748 mmHg 22%
    12:00 +44°C° 0 mm 8 mps 748 mmHg 20%
    13:00 +44°C° 0 mm 8 mps 748 mmHg 21%
    14:00 +44°C° 0 mm 8 mps 747 mmHg 21%
    15:00 +43°C° 0 mm 8 mps 747 mmHg 22%
    16:00 +41°C° 0 mm 8 mps 747 mmHg 23%
    17:00 +41°C° 0 mm 7 mps 747 mmHg 24%
    18:00 +40°C° 0 mm 7 mps 746 mmHg 26%
    19:00 +39°C° 0 mm 5 mps 747 mmHg 30%
    20:00 +36°C° 0 mm 4 mps 747 mmHg 34%
    21:00 +35°C° 0 mm 3 mps 747 mmHg 38%
    22:00 +35°C° 0 mm 3 mps 747 mmHg 39%
    23:00 +34°C° 0 mm 2 mps 747 mmHg 40%

    Day after tomorrow, 25 June, Sunday

    Time Temperature Precipitation Wind Pressure Humidity
    00:00 +34°C° 0 mm 2 mps 747 mmHg 41%
    01:00 +34°C° 0 mm 2 mps 746 mmHg 40%
    02:00 +34°C° 0 mm 3 mps 746 mmHg 38%
    03:00 +34°C° 0 mm 3 mps 746 mmHg 37%
    04:00 +34°C° 0 mm 4 mps 746 mmHg 37%
    05:00 +35°C° 0 mm 5 mps 746 mmHg 37%
    06:00 +35°C° 0 mm 5 mps 747 mmHg 37%
    07:00 +38°C° 0 mm 6 mps 747 mmHg 35%
    08:00 +40°C° 0 mm 6 mps 747 mmHg 32%
    09:00 +41°C° 0 mm 7 mps 747 mmHg 30%
    10:00 +43°C° 0 mm 7 mps 747 mmHg 28%
    11:00 +44°C° 0 mm 7 mps 747 mmHg 25%
    12:00 +45°C° 0 mm 8 mps 747 mmHg 22%
    13:00 +44°C° 0 mm 8 mps 746 mmHg 23%
    14:00 +44°C° 0 mm 8 mps 746 mmHg 24%
    15:00 +44°C° 0 mm 8 mps 746 mmHg 24%
    16:00 +43°C° 0 mm 7 mps 746 mmHg 27%
    17:00 +41°C° 0 mm 7 mps 746 mmHg 30%
    18:00 +40°C° 0 mm 6 mps 746 mmHg 33%
    19:00 +39°C° 0 mm 5 mps 746 mmHg 36%
    20:00 +37°C° 0 mm 4 mps 747 mmHg 39%
    21:00 +36°C° 0 mm 3 mps 747 mmHg 43%
    22:00 +35°C° 0 mm 2 mps 747 mmHg 42%
    23:00 +35°C° 0 mm 2 mps 747 mmHg 41%

    26 June, Monday

    Time Temperature Precipitation Wind Pressure Humidity
    00:00 +34°C° 0 mm 2 mps 746 mmHg 40%
    01:00 +34°C° 0 mm 2 mps 746 mmHg 37%
    02:00 +35°C° 0 mm 3 mps 746 mmHg 34%
    03:00 +35°C° 0 mm 4 mps 746 mmHg 31%
    04:00 +35°C° 0 mm 4 mps 746 mmHg 30%
    05:00 +36°C° 0 mm 5 mps 746 mmHg 29%
    06:00 +36°C° 0 mm 5 mps 747 mmHg 28%
    07:00 +39°C° 0 mm 5 mps 747 mmHg 24%
    08:00 +41°C° 0 mm 5 mps 747 mmHg 20%
    09:00 +44°C° 0 mm 6 mps 748 mmHg 16%
    10:00 +45°C° 0 mm 6 mps 747 mmHg 17%
    11:00 +46°C° 0 mm 6 mps 747 mmHg 18%
    12:00 +47°C° 0 mm 6 mps 747 mmHg 18%
    13:00 +46°C° 0 mm 6 mps 747 mmHg 18%
    14:00 +46°C° 0 mm 6 mps 747 mmHg 18%
    15:00 +46°C° 0 mm 7 mps 746 mmHg 18%
    16:00 +45°C° 0 mm 6 mps 746 mmHg 21%
    17:00 +44°C° 0 mm 6 mps 746 mmHg 23%
    18:00 +42°C° 0 mm 6 mps 746 mmHg 26%
    19:00 +41°C° 0 mm 6 mps 747 mmHg 28%
    20:00 +40°C° 0 mm 5 mps 747 mmHg 30%
    21:00 +38°C° 0 mm 4 mps 747 mmHg 31%
    22:00 +39°C° 0 mm 5 mps 747 mmHg 29%
    23:00 +39°C° 0 mm 5 mps 746 mmHg 28%

    27 June, Tuesday

    Time Temperature Precipitation Wind Pressure Humidity
    00:00 +39°C° 0 mm 5 mps 746 mmHg 26%
    01:00 +39°C° 0 mm 6 mps 746 mmHg 25%
    02:00 +39°C° 0 mm 6 mps 746 mmHg 24%
    03:00 +39°C° 0 mm 6 mps 745 mmHg 24%
    04:00 +39°C° 0 mm 6 mps 746 mmHg 24%
    05:00 +39°C° 0 mm 6 mps 746 mmHg 24%
    06:00 +39°C° 0 mm 6 mps 746 mmHg 24%
    07:00 +41°C° 0 mm 6 mps 747 mmHg 21%
    08:00 +44°C° 0 mm 7 mps 747 mmHg 17%
    09:00 +46°C° 0 mm 7 mps 747 mmHg 14%
    10:00 +47°C° 0 mm 7 mps 747 mmHg 14%
    11:00 +49°C° 0 mm 7 mps 746 mmHg 13%
    12:00 +50°C° 0 mm 7 mps 746 mmHg 13%
    13:00 +50°C° 0 mm 7 mps 746 mmHg 13%
    14:00 +50°C° 0 mm 7 mps 745 mmHg 13%
    15:00 +50°C° 0 mm 7 mps 745 mmHg 13%
    16:00 +47°C° 0 mm 6 mps 745 mmHg 15%
    17:00 +46°C° 0 mm 6 mps 745 mmHg 18%
    18:00 +45°C° 0 mm 5 mps 745 mmHg 20%
    19:00 +43°C° 0 mm 5 mps 745 mmHg 22%
    20:00 +41°C° 0 mm 4 mps 746 mmHg 24%
    21:00 +39°C° 0 mm 3 mps 746 mmHg 26%
    22:00 +39°C° 0 mm 3 mps 745 mmHg 25%
    23:00 +40°C° 0 mm 4 mps 745 mmHg 23%

    28 June, Wednesday

    Time Temperature Precipitation Wind Pressure Humidity
    00:00 +40°C° 0 mm 4 mps 745 mmHg 22%
    01:00 +40°C° 0 mm 4 mps 745 mmHg 22%
    02:00 +40°C° 0 mm 4 mps 744 mmHg 22%
    03:00 +40°C° 0 mm 4 mps 744 mmHg 22%
    04:00 +38°C° 0 mm 3 mps 745 mmHg 23%
    05:00 +38°C° 0 mm 2 mps 745 mmHg 24%
    06:00 +38°C° 0 mm 2 mps 746 mmHg 25%
    07:00 +39°C° 0 mm 2 mps 746 mmHg 22%
    08:00 +41°C° 0 mm 2 mps 746 mmHg 19%
    09:00 +43°C° 0 mm 2 mps 746 mmHg 16%
    10:00 +45°C° 0 mm 2 mps 746 mmHg 15%
    11:00 +46°C° 0 mm 2 mps 746 mmHg 13%
    12:00 +47°C° 0 mm 2 mps 745 mmHg 12%
    13:00 +47°C° 0 mm 3 mps 745 mmHg 13%
    14:00 +47°C° 0 mm 3 mps 744 mmHg 14%
    15:00 +47°C° 0 mm 4 mps 744 mmHg 14%
    16:00 +45°C° 0 mm 4 mps 744 mmHg 17%
    17:00 +44°C° 0 mm 3 mps 744 mmHg 19%
    18:00 +43°C° 0 mm 3 mps 744 mmHg 22%
    19:00 +40°C° 0 mm 2 mps 744 mmHg 24%
    20:00 +39°C° 0 mm 1 mps 744 mmHg 26%
    21:00 +37°C° 0 mm 1 mps 744 mmHg 28%
    22:00 +37°C° 0 mm 1 mps 744 mmHg 28%
    23:00 +38°C° 0 mm 2 mps 744 mmHg 28%
    Show more